EW7939 Weather Reports


Display with metric or nautical units.
time (UTC)temp
F
wind
direction
speed
MPH
gust
MPH
rain 1hr
in
rain 24hr
in
rain mn
in
humidity
%
barometer
mb
20191023071554 40 199 0.0 3.0 0.00 0.00 0.00 89 1012.6
20191023070029 40 196 0.0 1.0 0.00 0.00 0.00 88 1012.4
20191023064534 40 194 0.0 1.0 0.00 0.00 0.00 88 1012.5
20191023063123 40 194 0.0 1.0 0.00 0.00 0.00 88 1012.4
20191023061636 40 246 0.0 0.0 0.00 0.00 0.00 88 1012.4
20191023060029 40 246 0.0 0.0 0.00 0.00 0.00 88 1012.5
20191023054602 40 246 0.0 2.0 0.00 0.00 0.00 88 1012.7
20191023053015 40 246 0.0 1.0 0.00 0.00 0.00 88 1012.9
20191023051539 40 246 0.0 1.0 0.00 0.00 0.00 87 1013.2
20191023050012 40 246 0.0 0.0 0.00 0.00 0.00 86 1013.2
20191023044504 41 246 0.0 1.0 0.00 0.00 0.00 85 1013.2
20191023043004 41 246 0.0 2.0 0.00 0.00 0.00 85 1013.2
20191023041501 41 246 0.0 1.0 0.00 0.00 0.00 84 1013.5
20191023040219 41 246 0.0 1.0 0.00 0.00 0.00 84 1013.6
20191023034616 41 246 0.0 1.0 0.00 0.00 0.00 83 1013.7
20191023033148 42 246 0.0 1.0 0.00 0.00 0.00 83 1013.5
20191023031706 42 246 0.0 0.0 0.00 0.00 0.00 84 1013.7
20191023030155 42 246 0.0 2.0 0.00 0.00 0.00 82 1013.6
20191023024710 42 246 0.0 1.0 0.00 0.00 0.00 81 1013.6
20191023023236 42 246 0.0 0.0 0.00 0.00 0.00 81 1013.7
20191023021659 43 246 0.0 0.0 0.00 0.00 0.00 78 1013.6
20191023020139 43 246 0.0 1.0 0.00 0.00 0.00 76 1013.6
20191023014624 44 246 0.0 2.0 0.00 0.00 0.00 73 1013.7
20191023013146 45 246 0.0 1.0 0.00 0.00 0.00 72 1013.7
20191023011639 46 246 0.0 0.0 0.00 0.00 0.00 69 1013.8
20191023010120 47 246 0.0 0.0 0.00 0.00 0.00 62 1013.8
20191023004611 47 246 0.0 1.0 0.00 0.00 0.00 56 1013.9
20191023003120 48 246 0.0 2.0 0.00 0.00 0.00 54 1013.8
20191023001629 49 246 0.0 2.0 0.00 0.00 0.00 53 1013.7
20191023000209 50 246 0.0 2.0 0.00 0.00 0.00 51 1013.6
20191022234628 51 248 1.0 4.0 0.00 0.00 0.00 48 1013.6
20191022233218 52 236 2.0 5.0 0.00 0.00 0.00 46 1013.5
20191022231624 53 246 4.0 11.0 0.00 0.00 0.00 43 1013.3
20191022224554 55 260 9.0 15.0 0.00 0.00 0.00 39 1013.1
20191022223143 55 237 8.0 20.0 0.00 0.00 0.00 38 1013.1
20191022221703 56 223 9.0 17.0 0.00 0.00 0.00 37 1013.1
20191022220133 56 240 10.0 20.0 0.00 0.00 0.00 36 1013.0
20191022214649 56 305 10.0 18.0 0.00 0.00 0.00 36 1012.8
20191022213109 56 269 11.0 21.0 0.00 0.00 0.00 36 1012.8
20191022211559 57 317 10.0 20.0 0.00 0.00 0.00 37 1012.7
20191022210123 57 242 10.0 20.0 0.00 0.00 0.00 37 1012.7
20191022204636 57 234 7.0 24.0 0.00 0.00 0.00 38 1012.5
20191022203131 57 216 11.0 22.0 0.00 0.00 0.00 37 1012.5
20191022201608 56 304 10.0 20.0 0.00 0.00 0.00 37 1012.4
20191022200045 56 244 11.0 22.0 0.00 0.00 0.00 39 1012.2
20191022194558 56 288 11.0 23.0 0.00 0.00 0.00 39 1012.3
20191022193039 56 233 11.0 22.0 0.00 0.00 0.00 39 1012.2
20191022191543 56 246 11.0 24.0 0.00 0.00 0.00 40 1012.1
20191022190046 55 302 10.0 22.0 0.00 0.00 0.00 41 1012.1
20191022184609 56 214 9.0 19.0 0.00 0.00 0.00 44 1012.0
20191022183101 55 250 12.0 23.0 0.00 0.00 0.00 43 1012.1
20191022181527 54 247 11.0 23.0 0.00 0.00 0.00 46 1012.1
20191022180026 54 232 10.0 20.0 0.00 0.00 0.00 45 1012.3
20191022174526 54 249 6.0 21.0 0.00 0.00 0.00 46 1012.3
20191022173036 54 248 2.0 20.0 0.00 0.00 0.00 46 1012.4
20191022171513 53 263 1.0 19.0 0.00 0.00 0.00 48 1012.6
20191022170003 53 228 2.0 20.0 0.00 0.00 0.00 50 1012.5
20191022164728 52 213 10.0 23.0 0.00 0.00 0.00 49 1012.3
20191022163209 51 227 6.0 22.0 0.00 0.00 0.00 50 1012.3
20191022161631 51 235 12.0 25.0 0.00 0.00 0.00 52 1012.3
20191022160130 50 228 8.0 20.0 0.00 0.00 0.00 53 1012.0
20191022154628 50 231 11.0 26.0 0.00 0.01 0.00 56 1012.0
20191022153114 49 226 10.0 24.0 0.00 0.01 0.00 57 1011.9
20191022151719 49 243 9.0 20.0 0.00 0.01 0.00 59 1011.8
20191022150134 48 236 7.0 18.0 0.00 0.01 0.00 61 1011.7
20191022144645 47 251 10.0 19.0 0.00 0.01 0.00 62 1011.5
20191022143139 47 221 8.0 19.0 0.00 0.01 0.00 65 1011.4
20191022141656 46 220 10.0 20.0 0.00 0.01 0.00 65 1011.3
20191022140104 45 245 11.0 20.0 0.00 0.01 0.00 66 1011.2
20191022134555 45 271 7.0 16.0 0.00 0.01 0.00 68 1011.0
20191022133123 44 245 7.0 15.0 0.00 0.01 0.00 70 1010.7
20191022131610 43 238 9.0 16.0 0.00 0.01 0.00 71 1010.3
20191022130200 43 233 9.0 18.0 0.00 0.01 0.00 73 1010.2
20191022124548 43 236 9.0 18.0 0.00 0.01 0.00 73 1009.9
20191022123042 43 239 8.0 18.0 0.00 0.01 0.00 74 1009.9
20191022121556 43 224 6.0 19.0 0.00 0.01 0.00 74 1009.7
20191022120057 44 226 6.0 17.0 0.00 0.01 0.00 75 1009.6
20191022114533 44 242 6.0 15.0 0.00 0.01 0.00 75 1009.5
20191022113038 44 230 7.0 16.0 0.00 0.01 0.00 75 1009.2
20191022111524 44 209 6.0 14.0 0.00 0.01 0.00 76 1009.1
20191022110017 44 260 5.0 17.0 0.00 0.01 0.00 75 1008.8
20191022104513 45 194 7.0 15.0 0.00 0.01 0.00 76 1008.6
20191022103006 45 254 8.0 17.0 0.00 0.01 0.00 76 1008.6
20191022101508 45 236 8.0 14.0 0.00 0.01 0.00 77 1008.5
20191022100239 45 234 8.0 13.0 0.00 0.01 0.00 78 1008.2
20191022094725 45 229 8.0 17.0 0.00 0.01 0.00 78 1007.9
20191022093253 46 210 6.0 11.0 0.00 0.01 0.00 77 1007.8
20191022091639 46 201 6.0 18.0 0.00 0.01 0.00 76 1007.7
20191022090155 47 194 9.0 16.0 0.00 0.01 0.00 76 1007.7
20191022084600 47 244 8.0 20.0 0.00 0.06 0.00 76 1007.6
20191022083103 47 217 10.0 19.0 0.00 0.06 0.00 76 1007.5
20191022081607 47 230 4.0 16.0 0.00 0.06 0.00 75 1007.5
20191022080112 48 230 11.0 20.0 0.00 0.06 0.00 75 1007.4
20191022074646 48 219 6.0 19.0 0.00 0.34 0.00 75 1007.3
20191022073141 48 230 8.0 15.0 0.00 0.34 0.00 75 1007.3